Time,TemperatureF,DewpointF,PressureIn,WindDirection,WindDirectionDegrees,WindSpeedMPH,WindSpeedGustMPH,Humidity,HourlyPrecipIn,Conditions,Clouds,dailyrainin,SoftwareType,DateUTC
2013-03-28 00:00:00,32.5,27.3,29.87,NW,315,5.0,5.0,81,0.00,,,0.00,Wunderground v.1.15,2013-03-28 04:00:00,
2013-03-28 00:01:00,32.5,27.3,29.87,NNW,344,4.0,5.0,81,0.00,,,0.00,Wunderground v.1.15,2013-03-28 04:01:00,
2013-03-28 00:02:00,32.5,27.3,29.87,WNW,288,2.0,5.0,81,0.00,,,0.00,Wunderground v.1.15,2013-03-28 04:02:00,
2013-03-28 00:03:00,32.5,27.3,29.87,WNW,290,3.0,5.0,81,0.00,,,0.00,Wunderground v.1.15,2013-03-28 04:03:00,
2013-03-28 00:08:00,32.5,27.3,29.87,NW,314,6.0,6.0,81,0.00,,,0.00,Wunderground v.1.15,2013-03-28 04:08:00,
2013-03-28 00:14:00,32.6,27.4,29.87,WNW,287,2.0,5.0,81,0.00,,,0.00,Wunderground v.1.15,2013-03-28 04:14:00,
2013-03-28 00:20:00,32.5,27.3,29.87,NW,307,2.0,4.0,81,0.00,,,0.00,Wunderground v.1.15,2013-03-28 04:20:00,
2013-03-28 00:26:00,32.4,27.5,29.87,NNE,18,7.0,8.0,82,0.00,,,0.00,Wunderground v.1.15,2013-03-28 04:26:00,
2013-03-28 00:31:00,32.3,27.7,29.87,WNW,295,5.0,6.0,83,0.00,,,0.00,Wunderground v.1.15,2013-03-28 04:31:00,
2013-03-28 00:36:00,32.1,27.8,29.87,West,276,1.0,6.0,84,0.00,,,0.00,Wunderground v.1.15,2013-03-28 04:36:00,
2013-03-28 00:42:00,32.0,27.7,29.87,WNW,285,3.0,4.0,84,0.00,,,0.00,Wunderground v.1.15,2013-03-28 04:42:00,
2013-03-28 00:47:00,32.0,27.7,29.87,NW,316,4.0,6.0,84,0.00,,,0.00,Wunderground v.1.15,2013-03-28 04:47:00,
2013-03-28 00:53:00,32.0,28.0,29.87,WNW,298,2.0,6.0,85,0.00,,,0.00,Wunderground v.1.15,2013-03-28 04:53:00,
2013-03-28 00:58:00,31.8,27.8,29.87,NW,313,4.0,6.0,85,0.00,,,0.00,Wunderground v.1.15,2013-03-28 04:58:00,
2013-03-28 01:04:00,31.8,28.1,29.87,West,259,2.0,5.0,86,0.00,,,0.00,Wunderground v.1.15,2013-03-28 05:04:00,
2013-03-28 01:09:00,31.7,28.0,29.86,West,262,3.0,4.0,86,0.00,,,0.00,Wunderground v.1.15,2013-03-28 05:09:00,
2013-03-28 01:14:00,31.6,27.9,29.86,NW,307,2.0,4.0,86,0.00,,,0.00,Wunderground v.1.15,2013-03-28 05:14:00,
2013-03-28 01:20:00,31.4,28.0,29.87,NW,321,3.0,3.0,87,0.00,,,0.00,Wunderground v.1.15,2013-03-28 05:20:00,
2013-03-28 01:25:00,31.3,27.9,29.87,NW,304,1.0,3.0,87,0.00,,,0.00,Wunderground v.1.15,2013-03-28 05:25:00,
2013-03-28 01:31:00,31.3,27.9,29.87,NNW,346,0.0,3.0,87,0.00,,,0.00,Wunderground v.1.15,2013-03-28 05:31:00,
2013-03-28 01:36:00,31.2,28.1,29.86,NW,305,2.0,3.0,88,0.00,,,0.00,Wunderground v.1.15,2013-03-28 05:36:00,
2013-03-28 01:41:00,31.1,28.0,29.86,NW,304,2.0,2.0,88,0.00,,,0.00,Wunderground v.1.15,2013-03-28 05:41:00,
2013-03-28 01:46:00,31.1,28.0,29.87,WNW,302,0.0,3.0,88,0.00,,,0.00,Wunderground v.1.15,2013-03-28 05:46:00,
2013-03-28 01:52:00,31.0,28.1,29.86,WNW,299,0.0,5.0,89,0.00,,,0.00,Wunderground v.1.15,2013-03-28 05:52:00,
2013-03-28 01:57:00,30.9,28.0,29.86,NW,308,1.0,5.0,89,0.00,,,0.00,Wunderground v.1.15,2013-03-28 05:57:00,
2013-03-28 02:02:00,30.9,28.0,29.86,WNW,287,1.0,5.0,89,0.00,,,0.00,Wunderground v.1.15,2013-03-28 06:02:00,
2013-03-28 02:07:00,30.8,27.9,29.86,NW,319,2.0,5.0,89,0.00,,,0.00,Wunderground v.1.15,2013-03-28 06:07:00,
2013-03-28 02:12:00,30.8,28.2,29.86,WSW,256,0.0,4.0,90,0.00,,,0.00,Wunderground v.1.15,2013-03-28 06:12:00,
2013-03-28 02:17:00,30.7,28.1,29.86,WNW,292,0.0,4.0,90,0.00,,,0.00,Wunderground v.1.15,2013-03-28 06:17:00,
2013-03-28 02:22:00,30.7,28.1,29.86,NW,309,0.0,1.0,90,0.00,,,0.00,Wunderground v.1.15,2013-03-28 06:22:00,
2013-03-28 02:27:00,30.6,28.0,29.86,NW,308,1.0,2.0,90,0.00,,,0.00,Wunderground v.1.15,2013-03-28 06:27:00,
2013-03-28 02:32:00,30.6,28.0,29.86,WSW,239,0.0,1.0,90,0.00,,,0.00,Wunderground v.1.15,2013-03-28 06:32:00,
2013-03-28 02:37:00,30.6,28.0,29.86,NW,304,0.0,1.0,90,0.00,,,0.00,Wunderground v.1.15,2013-03-28 06:37:00,
2013-03-28 02:42:00,30.6,28.0,29.86,NW,304,0.0,1.0,90,0.00,,,0.00,Wunderground v.1.15,2013-03-28 06:42:00,
2013-03-28 02:48:00,30.6,28.0,29.86,NW,305,0.0,1.0,90,0.00,,,0.00,Wunderground v.1.15,2013-03-28 06:48:00,
2013-03-28 02:53:00,30.6,28.0,29.86,North,10,0.0,1.0,90,0.00,,,0.00,Wunderground v.1.15,2013-03-28 06:53:00,
2013-03-28 02:58:00,30.6,28.0,29.86,North,10,0.0,1.0,90,0.00,,,0.00,Wunderground v.1.15,2013-03-28 06:58:00,
2013-03-28 03:03:00,30.6,28.3,29.86,SW,231,0.0,1.0,91,0.00,,,0.00,Wunderground v.1.15,2013-03-28 07:03:00,
2013-03-28 03:08:00,30.5,28.2,29.86,NW,304,1.0,2.0,91,0.00,,,0.00,Wunderground v.1.15,2013-03-28 07:08:00,
2013-03-28 03:13:00,30.6,28.3,29.86,WNW,284,1.0,3.0,91,0.00,,,0.00,Wunderground v.1.15,2013-03-28 07:13:00,
2013-03-28 03:18:00,30.6,28.3,29.86,WNW,297,0.0,3.0,91,0.00,,,0.00,Wunderground v.1.15,2013-03-28 07:18:00,
2013-03-28 03:23:00,30.6,28.3,29.86,NW,305,1.0,3.0,91,0.00,,,0.00,Wunderground v.1.15,2013-03-28 07:23:00,
2013-03-28 03:28:00,30.6,28.3,29.86,NW,305,1.0,3.0,91,0.00,,,0.00,Wunderground v.1.15,2013-03-28 07:28:00,
2013-03-28 03:33:00,30.6,28.3,29.86,WNW,298,0.0,1.0,91,0.00,,,0.00,Wunderground v.1.15,2013-03-28 07:33:00,
2013-03-28 03:38:00,30.5,28.2,29.86,NW,304,1.0,3.0,91,0.00,,,0.00,Wunderground v.1.15,2013-03-28 07:38:00,
2013-03-28 03:43:00,30.5,28.5,29.86,West,280,2.0,3.0,92,0.00,,,0.00,Wunderground v.1.15,2013-03-28 07:43:00,
2013-03-28 03:48:00,30.4,28.4,29.86,NW,318,1.0,3.0,92,0.00,,,0.00,Wunderground v.1.15,2013-03-28 07:48:00,
2013-03-28 03:53:00,30.4,28.4,29.86,WNW,295,1.0,2.0,92,0.00,,,0.00,Wunderground v.1.15,2013-03-28 07:53:00,
2013-03-28 03:58:00,30.4,28.4,29.86,NW,321,0.0,2.0,92,0.00,,,0.00,Wunderground v.1.15,2013-03-28 07:58:00,
2013-03-28 04:03:00,30.3,28.3,29.86,WNW,297,0.0,1.0,92,0.00,,,0.00,Wunderground v.1.15,2013-03-28 08:03:00,
2013-03-28 04:08:00,30.3,28.3,29.86,NW,308,0.0,2.0,92,0.00,,,0.00,Wunderground v.1.15,2013-03-28 08:08:00,
2013-03-28 04:13:00,30.3,28.3,29.86,NW,311,1.0,2.0,92,0.00,,,0.00,Wunderground v.1.15,2013-03-28 08:13:00,
2013-03-28 04:18:00,30.3,28.5,29.86,WNW,290,1.0,2.0,93,0.00,,,0.00,Wunderground v.1.15,2013-03-28 08:18:00,
2013-03-28 04:24:00,30.3,28.5,29.86,NW,311,2.0,2.0,93,0.00,,,0.00,Wunderground v.1.15,2013-03-28 08:24:00,
2013-03-28 04:29:00,30.3,28.5,29.86,North,7,0.0,1.0,93,0.00,,,0.00,Wunderground v.1.15,2013-03-28 08:29:00,
2013-03-28 04:34:00,30.3,28.5,29.86,NW,321,2.0,2.0,93,0.00,,,0.00,Wunderground v.1.15,2013-03-28 08:34:00,
2013-03-28 04:39:00,30.3,28.5,29.86,WNW,287,0.0,0.0,93,0.00,,,0.00,Wunderground v.1.15,2013-03-28 08:39:00,
2013-03-28 04:44:00,30.3,28.5,29.86,NW,307,0.0,3.0,93,0.00,,,0.00,Wunderground v.1.15,2013-03-28 08:44:00,
2013-03-28 04:49:00,30.2,28.4,29.86,NW,304,2.0,3.0,93,0.00,,,0.00,Wunderground v.1.15,2013-03-28 08:49:00,
2013-03-28 04:54:00,30.2,28.4,29.86,WNW,297,1.0,3.0,93,0.00,,,0.00,Wunderground v.1.15,2013-03-28 08:54:00,
2013-03-28 04:59:00,30.2,28.4,29.87,NW,312,3.0,3.0,93,0.00,,,0.00,Wunderground v.1.15,2013-03-28 08:59:00,
2013-03-28 05:04:00,30.2,28.4,29.87,NW,308,3.0,3.0,93,0.00,,,0.00,Wunderground v.1.15,2013-03-28 09:04:00,
2013-03-28 05:09:00,30.2,28.4,29.87,NW,307,0.0,1.0,93,0.00,,,0.00,Wunderground v.1.15,2013-03-28 09:09:00,
2013-03-28 05:14:00,30.1,28.3,29.87,WNW,299,0.0,1.0,93,0.00,,,0.00,Wunderground v.1.15,2013-03-28 09:14:00,
2013-03-28 05:19:00,30.1,28.6,29.87,NW,322,2.0,2.0,94,0.00,,,0.00,Wunderground v.1.15,2013-03-28 09:19:00,
2013-03-28 05:24:00,30.1,28.6,29.87,NW,309,1.0,3.0,94,0.00,,,0.00,Wunderground v.1.15,2013-03-28 09:24:00,
2013-03-28 05:29:00,30.1,28.6,29.87,NW,309,1.0,2.0,94,0.00,,,0.00,Wunderground v.1.15,2013-03-28 09:29:00,
2013-03-28 05:34:00,30.1,28.6,29.87,NW,304,0.0,2.0,94,0.00,,,0.00,Wunderground v.1.15,2013-03-28 09:34:00,
2013-03-28 05:39:00,30.1,28.6,29.87,WNW,301,0.0,1.0,94,0.00,,,0.00,Wunderground v.1.15,2013-03-28 09:39:00,
2013-03-28 05:44:00,30.1,28.6,29.87,NW,307,1.0,2.0,94,0.00,,,0.00,Wunderground v.1.15,2013-03-28 09:44:00,
2013-03-28 05:49:00,30.1,28.6,29.87,NW,308,2.0,2.0,94,0.00,,,0.00,Wunderground v.1.15,2013-03-28 09:49:00,
2013-03-28 05:54:00,30.1,28.6,29.87,NW,314,0.0,3.0,94,0.00,,,0.00,Wunderground v.1.15,2013-03-28 09:54:00,
2013-03-28 05:59:00,30.1,28.6,29.87,NW,305,2.0,2.0,94,0.00,,,0.00,Wunderground v.1.15,2013-03-28 09:59:00,
2013-03-28 06:04:00,30.1,28.6,29.87,NW,314,0.0,1.0,94,0.00,,,0.00,Wunderground v.1.15,2013-03-28 10:04:00,
2013-03-28 06:09:00,30.1,28.6,29.88,NW,309,0.0,1.0,94,0.00,,,0.00,Wunderground v.1.15,2013-03-28 10:09:00,
2013-03-28 06:14:00,30.1,28.6,29.88,NW,313,1.0,1.0,94,0.00,,,0.00,Wunderground v.1.15,2013-03-28 10:14:00,
2013-03-28 06:19:00,30.0,28.5,29.88,NW,314,1.0,2.0,94,0.00,,,0.00,Wunderground v.1.15,2013-03-28 10:19:00,
2013-03-28 06:24:00,30.0,28.5,29.88,NW,308,2.0,2.0,94,0.00,,,0.00,Wunderground v.1.15,2013-03-28 10:24:00,
2013-03-28 06:29:00,30.0,28.5,29.88,NW,304,1.0,3.0,94,0.00,,,0.00,Wunderground v.1.15,2013-03-28 10:29:00,
2013-03-28 06:34:00,30.0,28.5,29.88,NW,318,1.0,3.0,94,0.00,,,0.00,Wunderground v.1.15,2013-03-28 10:34:00,
2013-03-28 06:39:00,30.0,28.5,29.89,NW,311,2.0,2.0,94,0.00,,,0.00,Wunderground v.1.15,2013-03-28 10:39:00,
2013-03-28 06:44:00,30.0,28.7,29.89,WNW,302,1.0,4.0,95,0.00,,,0.00,Wunderground v.1.15,2013-03-28 10:44:00,
2013-03-28 06:49:00,30.0,28.7,29.89,WNW,285,0.0,1.0,95,0.00,,,0.00,Wunderground v.1.15,2013-03-28 10:49:00,
2013-03-28 06:54:00,30.0,28.7,29.89,NW,314,2.0,3.0,95,0.00,,,0.00,Wunderground v.1.15,2013-03-28 10:54:00,
2013-03-28 06:59:00,30.0,28.7,29.89,WNW,299,1.0,1.0,95,0.00,,,0.00,Wunderground v.1.15,2013-03-28 10:59:00,
2013-03-28 07:04:00,29.9,28.6,29.89,NW,309,0.0,2.0,95,0.00,,,0.00,Wunderground v.1.15,2013-03-28 11:04:00,
2013-03-28 07:09:00,29.9,28.6,29.89,NW,310,0.0,1.0,95,0.00,,,0.00,Wunderground v.1.15,2013-03-28 11:09:00,
2013-03-28 07:14:00,30.0,28.7,29.90,NNW,333,0.0,1.0,95,0.00,,,0.00,Wunderground v.1.15,2013-03-28 11:14:00,
2013-03-28 07:19:00,30.0,28.7,29.90,NW,319,1.0,1.0,95,0.00,,,0.00,Wunderground v.1.15,2013-03-28 11:19:00,
2013-03-28 07:25:00,30.1,28.8,29.90,NW,316,0.0,2.0,95,0.00,,,0.00,Wunderground v.1.15,2013-03-28 11:25:00,
2013-03-28 07:30:00,30.1,28.8,29.90,North,352,1.0,1.0,95,0.00,,,0.00,Wunderground v.1.15,2013-03-28 11:30:00,
2013-03-28 07:35:00,30.2,28.9,29.90,North,354,2.0,2.0,95,0.00,,,0.00,Wunderground v.1.15,2013-03-28 11:35:00,
2013-03-28 07:40:00,30.3,29.0,29.90,North,352,0.0,1.0,95,0.00,,,0.00,Wunderground v.1.15,2013-03-28 11:40:00,
2013-03-28 07:45:00,30.4,29.1,29.91,North,354,0.0,1.0,95,0.00,,,0.00,Wunderground v.1.15,2013-03-28 11:45:00,
2013-03-28 07:50:00,30.5,29.2,29.91,NW,310,1.0,1.0,95,0.00,,,0.00,Wunderground v.1.15,2013-03-28 11:50:00,
2013-03-28 07:55:00,30.6,29.1,29.91,NW,304,0.0,1.0,94,0.00,,,0.00,Wunderground v.1.15,2013-03-28 11:55:00,
2013-03-28 08:00:00,30.7,29.2,29.91,NW,305,0.0,1.0,94,0.00,,,0.00,Wunderground v.1.15,2013-03-28 12:00:00,
2013-03-28 08:05:00,30.9,29.4,29.91,WNW,297,0.0,1.0,94,0.00,,,0.00,Wunderground v.1.15,2013-03-28 12:05:00,
2013-03-28 08:10:00,30.9,29.4,29.91,NW,308,2.0,2.0,94,0.00,,,0.00,Wunderground v.1.15,2013-03-28 12:10:00,
2013-03-28 08:15:00,31.0,29.5,29.91,NW,310,2.0,3.0,94,0.00,,,0.00,Wunderground v.1.15,2013-03-28 12:15:00,
2013-03-28 08:20:00,31.1,29.3,29.91,NW,308,2.0,3.0,93,0.00,,,0.00,Wunderground v.1.15,2013-03-28 12:20:00,
2013-03-28 08:25:00,31.2,29.4,29.91,NW,309,1.0,4.0,93,0.00,,,0.00,Wunderground v.1.15,2013-03-28 12:25:00,
2013-03-28 08:30:00,31.4,29.6,29.91,NNW,342,1.0,2.0,93,0.00,,,0.00,Wunderground v.1.15,2013-03-28 12:30:00,
2013-03-28 08:35:00,31.6,29.8,29.91,NW,307,1.0,3.0,93,0.00,,,0.00,Wunderground v.1.15,2013-03-28 12:35:00,
2013-03-28 08:40:00,31.7,29.6,29.91,NW,318,3.0,3.0,92,0.00,,,0.00,Wunderground v.1.15,2013-03-28 12:40:00,
2013-03-28 08:45:00,31.7,29.6,29.91,NW,319,2.0,4.0,92,0.00,,,0.00,Wunderground v.1.15,2013-03-28 12:45:00,
2013-03-28 08:50:00,31.8,29.7,29.91,NW,321,1.0,2.0,92,0.00,,,0.00,Wunderground v.1.15,2013-03-28 12:50:00,
2013-03-28 08:55:00,31.9,29.8,29.91,WNW,294,1.0,3.0,92,0.00,,,0.00,Wunderground v.1.15,2013-03-28 12:55:00,
2013-03-28 09:00:00,32.1,29.8,29.91,NW,319,1.0,2.0,91,0.00,,,0.00,Wunderground v.1.15,2013-03-28 13:00:00,
2013-03-28 09:05:00,32.5,30.2,29.91,NNW,346,1.0,2.0,91,0.00,,,0.00,Wunderground v.1.15,2013-03-28 13:05:00,
2013-03-28 09:10:00,32.7,30.1,29.91,North,3,1.0,4.0,90,0.00,,,0.00,Wunderground v.1.15,2013-03-28 13:10:00,
2013-03-28 09:15:00,32.8,30.2,29.92,NNW,331,3.0,4.0,90,0.00,,,0.00,Wunderground v.1.15,2013-03-28 13:15:00,
2013-03-28 09:20:00,32.8,30.2,29.92,NW,317,2.0,3.0,90,0.00,,,0.00,Wunderground v.1.15,2013-03-28 13:20:00,
2013-03-28 09:26:00,32.9,30.0,29.92,West,269,1.0,5.0,89,0.00,,,0.00,Wunderground v.1.15,2013-03-28 13:26:00,
2013-03-28 09:31:00,33.2,30.3,29.92,NW,311,2.0,3.0,89,0.00,,,0.00,Wunderground v.1.15,2013-03-28 13:31:00,
2013-03-28 09:35:00,33.2,30.3,29.92,NW,314,3.0,3.0,89,0.00,,,0.00,Wunderground v.1.15,2013-03-28 13:35:00,
2013-03-28 09:40:00,33.4,30.5,29.92,NNW,333,1.0,2.0,89,0.00,,,0.00,Wunderground v.1.15,2013-03-28 13:40:00,
2013-03-28 09:45:00,33.7,30.5,29.92,North,351,2.0,6.0,88,0.00,,,0.00,Wunderground v.1.15,2013-03-28 13:45:00,
2013-03-28 09:50:00,34.0,30.8,29.92,NNW,329,2.0,4.0,88,0.00,,,0.00,Wunderground v.1.15,2013-03-28 13:50:00,
2013-03-28 09:56:00,33.8,30.3,29.92,WSW,240,2.0,6.0,87,0.00,,,0.00,Wunderground v.1.15,2013-03-28 13:56:00,
2013-03-28 10:01:00,34.0,30.5,29.92,NW,316,3.0,3.0,87,0.00,,,0.00,Wunderground v.1.15,2013-03-28 14:01:00,
2013-03-28 10:05:00,34.1,30.6,29.93,NNE,30,2.0,4.0,87,0.00,,,0.00,Wunderground v.1.15,2013-03-28 14:05:00,
2013-03-28 10:11:00,34.3,30.8,29.93,North,3,3.0,4.0,87,0.00,,,0.00,Wunderground v.1.15,2013-03-28 14:11:00,
2013-03-28 10:16:00,34.5,30.7,29.93,NW,312,2.0,4.0,86,0.00,,,0.00,Wunderground v.1.15,2013-03-28 14:16:00,
2013-03-28 10:21:00,34.8,31.0,29.93,NNE,14,1.0,4.0,86,0.00,,,0.00,Wunderground v.1.15,2013-03-28 14:21:00,
2013-03-28 10:26:00,34.5,30.5,29.93,NW,308,2.0,6.0,85,0.00,,,0.00,Wunderground v.1.15,2013-03-28 14:26:00,
2013-03-28 10:31:00,34.2,30.2,29.93,WNW,302,3.0,6.0,85,0.00,,,0.00,Wunderground v.1.15,2013-03-28 14:31:00,
2013-03-28 10:36:00,34.2,30.7,29.93,North,351,1.0,6.0,87,0.00,,,0.00,Wunderground v.1.15,2013-03-28 14:36:00,
2013-03-28 10:41:00,34.4,30.9,29.93,WNW,297,0.0,3.0,87,0.00,,,0.00,Wunderground v.1.15,2013-03-28 14:41:00,
2013-03-28 10:46:00,34.6,31.1,29.93,West,276,0.0,4.0,87,0.00,,,0.00,Wunderground v.1.15,2013-03-28 14:46:00,
2013-03-28 10:51:00,35.0,31.2,29.93,SW,229,0.0,2.0,86,0.00,,,0.00,Wunderground v.1.15,2013-03-28 14:51:00,
2013-03-28 10:56:00,34.6,31.1,29.94,SW,217,1.0,4.0,87,0.00,,,0.00,Wunderground v.1.15,2013-03-28 14:56:00,
2013-03-28 11:01:00,34.5,31.3,29.94,SW,226,0.0,2.0,88,0.00,,,0.00,Wunderground v.1.15,2013-03-28 15:01:00,
2013-03-28 11:06:00,34.6,31.4,29.94,NNE,30,0.0,4.0,88,0.00,,,0.00,Wunderground v.1.15,2013-03-28 15:06:00,
2013-03-28 11:11:00,35.1,31.6,29.94,WNW,288,1.0,2.0,87,0.00,,,0.00,Wunderground v.1.15,2013-03-28 15:11:00,
2013-03-28 11:17:00,35.1,31.0,29.94,West,263,1.0,3.0,85,0.00,,,0.00,Wunderground v.1.15,2013-03-28 15:17:00,
2013-03-28 11:22:00,35.3,30.9,29.94,SW,226,0.0,4.0,84,0.00,,,0.00,Wunderground v.1.15,2013-03-28 15:22:00,
2013-03-28 11:27:00,35.6,31.5,29.94,WSW,242,1.0,4.0,85,0.00,,,0.00,Wunderground v.1.15,2013-03-28 15:27:00,
2013-03-28 11:32:00,35.7,31.6,29.94,South,184,1.0,5.0,85,0.00,,,0.00,Wunderground v.1.15,2013-03-28 15:32:00,
2013-03-28 11:37:00,35.9,31.8,29.94,WNW,285,0.0,5.0,85,0.00,,,0.00,Wunderground v.1.15,2013-03-28 15:37:00,
2013-03-28 11:42:00,36.0,31.9,29.94,SSE,162,3.0,3.0,85,0.00,,,0.00,Wunderground v.1.15,2013-03-28 15:42:00,
2013-03-28 11:47:00,36.2,31.8,29.94,SW,236,1.0,3.0,84,0.00,,,0.00,Wunderground v.1.15,2013-03-28 15:47:00,
2013-03-28 11:52:00,36.7,32.3,29.94,WSW,247,0.0,1.0,84,0.00,,,0.00,Wunderground v.1.15,2013-03-28 15:52:00,
2013-03-28 11:57:00,36.7,32.0,29.94,West,259,2.0,4.0,83,0.00,,,0.00,Wunderground v.1.15,2013-03-28 15:57:00,
2013-03-28 12:02:00,37.5,32.5,29.93,NNW,333,2.0,3.0,82,0.00,,,0.00,Wunderground v.1.15,2013-03-28 16:02:00,
2013-03-28 12:07:00,38.0,32.7,29.93,NW,319,4.0,7.0,81,0.00,,,0.00,Wunderground v.1.15,2013-03-28 16:07:00,
2013-03-28 12:12:00,38.5,32.9,29.93,North,4,4.0,7.0,80,0.00,,,0.00,Wunderground v.1.15,2013-03-28 16:12:00,
2013-03-28 12:17:00,38.0,32.1,29.93,North,359,2.0,8.0,79,0.00,,,0.00,Wunderground v.1.15,2013-03-28 16:17:00,
2013-03-28 12:22:00,38.5,32.6,29.93,North,351,5.0,7.0,79,0.00,,,0.00,Wunderground v.1.15,2013-03-28 16:22:00,
2013-03-28 12:27:00,38.7,32.7,29.93,SSW,205,2.0,7.0,79,0.00,,,0.00,Wunderground v.1.15,2013-03-28 16:27:00,
2013-03-28 12:32:00,39.0,32.7,29.93,NNW,330,1.0,5.0,78,0.00,,,0.00,Wunderground v.1.15,2013-03-28 16:32:00,
2013-03-28 12:37:00,39.7,33.4,29.93,WNW,290,0.0,5.0,78,0.00,,,0.00,Wunderground v.1.15,2013-03-28 16:37:00,
2013-03-28 12:42:00,39.8,32.8,29.93,WNW,302,3.0,5.0,76,0.00,,,0.00,Wunderground v.1.15,2013-03-28 16:42:00,
2013-03-28 12:47:00,39.4,32.8,29.93,West,276,6.0,8.0,77,0.00,,,0.00,Wunderground v.1.15,2013-03-28 16:47:00,
2013-03-28 12:52:00,38.8,32.2,29.93,NW,319,4.0,8.0,77,0.00,,,0.00,Wunderground v.1.15,2013-03-28 16:52:00,
2013-03-28 12:57:00,37.6,31.7,29.93,WNW,287,5.0,11.0,79,0.00,,,0.00,Wunderground v.1.15,2013-03-28 16:57:00,
2013-03-28 13:02:00,37.4,31.8,29.93,NNW,327,2.0,10.0,80,0.00,,,0.00,Wunderground v.1.15,2013-03-28 17:02:00,
2013-03-28 13:07:00,37.5,32.2,29.93,NW,318,5.0,10.0,81,0.00,,,0.00,Wunderground v.1.15,2013-03-28 17:07:00,
2013-03-28 13:12:00,37.2,31.9,29.94,WNW,290,9.0,11.0,81,0.00,,,0.00,Wunderground v.1.15,2013-03-28 17:12:00,
2013-03-28 13:17:00,36.9,31.9,29.93,NNW,339,4.0,11.0,82,0.00,,,0.00,Wunderground v.1.15,2013-03-28 17:17:00,
2013-03-28 13:22:00,36.8,32.1,29.94,NW,314,10.0,10.0,83,0.00,,,0.00,Wunderground v.1.15,2013-03-28 17:22:00,
2013-03-28 13:27:00,36.4,32.0,29.94,NW,323,6.0,12.0,84,0.00,,,0.00,Wunderground v.1.15,2013-03-28 17:27:00,
2013-03-28 13:32:00,36.5,31.8,29.94,NW,314,3.0,11.0,83,0.00,,,0.00,Wunderground v.1.15,2013-03-28 17:32:00,
2013-03-28 13:37:00,37.1,32.1,29.94,WNW,302,7.0,12.0,82,0.00,,,0.00,Wunderground v.1.15,2013-03-28 17:37:00,
2013-03-28 13:42:00,37.6,32.3,29.94,WNW,284,4.0,9.0,81,0.00,,,0.00,Wunderground v.1.15,2013-03-28 17:42:00,
2013-03-28 13:47:00,38.3,32.0,29.93,WNW,303,9.0,12.0,78,0.00,,,0.00,Wunderground v.1.15,2013-03-28 17:47:00,
2013-03-28 13:52:00,39.2,32.6,29.93,WNW,284,9.0,11.0,77,0.00,,,0.00,Wunderground v.1.15,2013-03-28 17:52:00,
2013-03-28 13:57:00,39.1,32.2,29.93,NNW,347,5.0,12.0,76,0.00,,,0.00,Wunderground v.1.15,2013-03-28 17:57:00,
2013-03-28 14:02:00,39.2,32.3,29.93,NW,315,5.0,8.0,76,0.00,,,0.00,Wunderground v.1.15,2013-03-28 18:02:00,
2013-03-28 14:08:00,39.2,31.9,29.93,NW,314,10.0,10.0,75,0.00,,,0.00,Wunderground v.1.15,2013-03-28 18:08:00,
2013-03-28 14:13:00,39.5,32.2,29.93,NW,312,4.0,10.0,75,0.00,,,0.00,Wunderground v.1.15,2013-03-28 18:13:00,
2013-03-28 14:18:00,39.4,32.1,29.93,NNW,333,3.0,10.0,75,0.00,,,0.00,Wunderground v.1.15,2013-03-28 18:18:00,
2013-03-28 14:23:00,38.7,31.8,29.93,NW,309,3.0,13.0,76,0.00,,,0.00,Wunderground v.1.15,2013-03-28 18:23:00,
2013-03-28 14:28:00,38.4,31.5,29.93,West,281,6.0,13.0,76,0.00,,,0.00,Wunderground v.1.15,2013-03-28 18:28:00,
2013-03-28 14:33:00,38.3,31.7,29.93,West,266,7.0,10.0,77,0.00,,,0.00,Wunderground v.1.15,2013-03-28 18:33:00,
2013-03-28 14:38:00,38.3,31.7,29.93,North,6,6.0,11.0,77,0.00,,,0.00,Wunderground v.1.15,2013-03-28 18:38:00,
2013-03-28 14:42:00,38.4,31.5,29.93,NW,309,8.0,11.0,76,0.00,,,0.00,Wunderground v.1.15,2013-03-28 18:42:00,
2013-03-28 14:47:00,38.4,31.5,29.93,West,267,1.0,11.0,76,0.00,,,0.00,Wunderground v.1.15,2013-03-28 18:47:00,
2013-03-28 14:52:00,38.7,31.5,29.93,West,267,2.0,11.0,75,0.00,,,0.00,Wunderground v.1.15,2013-03-28 18:52:00,
2013-03-28 14:57:00,38.7,31.5,29.92,NW,315,6.0,14.0,75,0.00,,,0.00,Wunderground v.1.15,2013-03-28 18:57:00,
2013-03-28 15:03:00,38.8,31.6,29.93,NW,326,0.0,10.0,75,0.00,,,0.00,Wunderground v.1.15,2013-03-28 19:03:00,
2013-03-28 15:08:00,39.0,31.7,29.92,WNW,285,1.0,10.0,75,0.00,,,0.00,Wunderground v.1.15,2013-03-28 19:08:00,
2013-03-28 15:13:00,39.1,31.8,29.92,NW,305,4.0,7.0,75,0.00,,,0.00,Wunderground v.1.15,2013-03-28 19:13:00,
2013-03-28 15:18:00,39.1,31.8,29.93,NW,314,3.0,8.0,75,0.00,,,0.00,Wunderground v.1.15,2013-03-28 19:18:00,
2013-03-28 15:23:00,39.1,31.5,29.92,WNW,301,3.0,8.0,74,0.00,,,0.00,Wunderground v.1.15,2013-03-28 19:23:00,
2013-03-28 15:28:00,39.3,31.7,29.93,NW,325,1.0,8.0,74,0.00,,,0.00,Wunderground v.1.15,2013-03-28 19:28:00,
2013-03-28 15:33:00,39.3,31.4,29.93,NW,308,1.0,5.0,73,0.00,,,0.00,Wunderground v.1.15,2013-03-28 19:33:00,
2013-03-28 15:38:00,39.1,31.2,29.93,North,351,2.0,5.0,73,0.00,,,0.00,Wunderground v.1.15,2013-03-28 19:38:00,
2013-03-28 15:43:00,38.9,31.0,29.93,NW,310,5.0,6.0,73,0.00,,,0.00,Wunderground v.1.15,2013-03-28 19:43:00,
2013-03-28 15:48:00,38.8,31.2,29.93,NW,319,1.0,6.0,74,0.00,,,0.00,Wunderground v.1.15,2013-03-28 19:48:00,
2013-03-28 15:53:00,38.8,31.2,29.93,West,277,3.0,6.0,74,0.00,,,0.00,Wunderground v.1.15,2013-03-28 19:53:00,
2013-03-28 15:58:00,38.8,30.9,29.93,WNW,297,2.0,6.0,73,0.00,,,0.00,Wunderground v.1.15,2013-03-28 19:58:00,
2013-03-28 16:03:00,38.8,31.2,29.93,WNW,283,2.0,6.0,74,0.00,,,0.00,Wunderground v.1.15,2013-03-28 20:03:00,
2013-03-28 16:08:00,38.9,31.0,29.93,West,259,1.0,6.0,73,0.00,,,0.00,Wunderground v.1.15,2013-03-28 20:08:00,
2013-03-28 16:13:00,39.0,31.1,29.93,WNW,295,0.0,4.0,73,0.00,,,0.00,Wunderground v.1.15,2013-03-28 20:13:00,
2013-03-28 16:18:00,39.2,31.3,29.93,NW,323,2.0,4.0,73,0.00,,,0.00,Wunderground v.1.15,2013-03-28 20:18:00,
2013-03-28 16:23:00,39.6,31.3,29.93,WNW,298,2.0,3.0,72,0.00,,,0.00,Wunderground v.1.15,2013-03-28 20:23:00,
2013-03-28 16:28:00,39.9,31.3,29.93,NW,307,3.0,6.0,71,0.00,,,0.00,Wunderground v.1.15,2013-03-28 20:28:00,
2013-03-28 16:33:00,40.1,31.1,29.93,NW,322,6.0,7.0,70,0.00,,,0.00,Wunderground v.1.15,2013-03-28 20:33:00,
2013-03-28 16:38:00,40.2,30.5,29.93,NW,321,2.0,8.0,68,0.00,,,0.00,Wunderground v.1.15,2013-03-28 20:38:00,
2013-03-28 16:43:00,40.4,30.3,29.93,NW,323,2.0,7.0,67,0.00,,,0.00,Wunderground v.1.15,2013-03-28 20:43:00,
2013-03-28 16:48:00,40.4,29.9,29.93,NW,314,4.0,7.0,66,0.00,,,0.00,Wunderground v.1.15,2013-03-28 20:48:00,
2013-03-28 16:53:00,40.5,29.7,29.93,WNW,302,2.0,8.0,65,0.00,,,0.00,Wunderground v.1.15,2013-03-28 20:53:00,
2013-03-28 16:58:00,40.5,29.7,29.93,WNW,285,5.0,8.0,65,0.00,,,0.00,Wunderground v.1.15,2013-03-28 20:58:00,
2013-03-28 17:04:00,40.5,30.0,29.93,NNW,333,2.0,6.0,66,0.00,,,0.00,Wunderground v.1.15,2013-03-28 21:04:00,
2013-03-28 17:08:00,40.6,30.5,29.93,NW,305,5.0,7.0,67,0.00,,,0.00,Wunderground v.1.15,2013-03-28 21:08:00,
2013-03-28 17:14:00,40.8,30.7,29.93,WNW,298,5.0,7.0,67,0.00,,,0.00,Wunderground v.1.15,2013-03-28 21:14:00,
2013-03-28 17:19:00,40.9,30.8,29.93,WNW,288,4.0,4.0,67,0.00,,,0.00,Wunderground v.1.15,2013-03-28 21:19:00,
2013-03-28 17:24:00,40.9,30.8,29.93,NW,311,0.0,6.0,67,0.00,,,0.00,Wunderground v.1.15,2013-03-28 21:24:00,
2013-03-28 17:29:00,41.0,30.9,29.93,West,273,3.0,3.0,67,0.00,,,0.00,Wunderground v.1.15,2013-03-28 21:29:00,
2013-03-28 17:34:00,40.9,30.4,29.94,NNW,348,3.0,7.0,66,0.00,,,0.00,Wunderground v.1.15,2013-03-28 21:34:00,
2013-03-28 17:39:00,40.8,30.3,29.93,NW,312,3.0,4.0,66,0.00,,,0.00,Wunderground v.1.15,2013-03-28 21:39:00,
2013-03-28 17:44:00,40.8,30.3,29.94,WNW,291,4.0,4.0,66,0.00,,,0.00,Wunderground v.1.15,2013-03-28 21:44:00,
2013-03-28 17:49:00,40.7,30.2,29.94,WSW,257,1.0,3.0,66,0.00,,,0.00,Wunderground v.1.15,2013-03-28 21:49:00,
2013-03-28 17:54:00,40.6,30.1,29.94,North,359,3.0,10.0,66,0.00,,,0.00,Wunderground v.1.15,2013-03-28 21:54:00,
2013-03-28 17:59:00,40.7,30.2,29.94,NW,314,2.0,3.0,66,0.00,,,0.00,Wunderground v.1.15,2013-03-28 21:59:00,
2013-03-28 18:04:00,40.7,30.2,29.94,NW,307,2.0,3.0,66,0.00,,,0.00,Wunderground v.1.15,2013-03-28 22:04:00,
2013-03-28 18:09:00,40.7,30.2,29.94,NW,310,3.0,4.0,66,0.00,,,0.00,Wunderground v.1.15,2013-03-28 22:09:00,
2013-03-28 18:14:00,40.7,30.2,29.94,WNW,297,0.0,4.0,66,0.00,,,0.00,Wunderground v.1.15,2013-03-28 22:14:00,
2013-03-28 18:19:00,40.7,30.2,29.94,West,274,3.0,3.0,66,0.00,,,0.00,Wunderground v.1.15,2013-03-28 22:19:00,
2013-03-28 18:24:00,40.5,30.4,29.95,West,281,0.0,4.0,67,0.00,,,0.00,Wunderground v.1.15,2013-03-28 22:24:00,
2013-03-28 18:29:00,40.3,30.2,29.95,WNW,302,2.0,6.0,67,0.00,,,0.00,Wunderground v.1.15,2013-03-28 22:29:00,
2013-03-28 18:34:00,40.2,30.5,29.95,WNW,299,1.0,9.0,68,0.00,,,0.00,Wunderground v.1.15,2013-03-28 22:34:00,
2013-03-28 18:39:00,40.1,30.7,29.95,NW,314,4.0,4.0,69,0.00,,,0.00,Wunderground v.1.15,2013-03-28 22:39:00,
2013-03-28 18:45:00,39.9,30.9,29.95,NW,305,0.0,4.0,70,0.00,,,0.00,Wunderground v.1.15,2013-03-28 22:45:00,
2013-03-28 18:50:00,39.8,30.8,29.96,WNW,287,1.0,2.0,70,0.00,,,0.00,Wunderground v.1.15,2013-03-28 22:50:00,
2013-03-28 18:55:00,39.7,30.7,29.96,NW,325,4.0,5.0,70,0.00,,,0.00,Wunderground v.1.15,2013-03-28 22:55:00,
2013-03-28 19:00:00,39.6,31.0,29.96,NW,312,2.0,2.0,71,0.00,,,0.00,Wunderground v.1.15,2013-03-28 23:00:00,
2013-03-28 19:05:00,39.5,30.5,29.96,NW,308,0.0,5.0,70,0.00,,,0.00,Wunderground v.1.15,2013-03-28 23:05:00,
2013-03-28 19:10:00,39.1,30.8,29.97,WNW,297,0.0,1.0,72,0.00,,,0.00,Wunderground v.1.15,2013-03-28 23:10:00,
2013-03-28 19:15:00,38.9,30.6,29.96,WNW,285,0.0,4.0,72,0.00,,,0.00,Wunderground v.1.15,2013-03-28 23:15:00,
2013-03-28 19:20:00,38.4,30.2,29.97,NW,306,0.0,1.0,72,0.00,,,0.00,Wunderground v.1.15,2013-03-28 23:20:00,
2013-03-28 19:25:00,37.6,29.7,29.97,NNW,342,0.0,1.0,73,0.00,,,0.00,Wunderground v.1.15,2013-03-28 23:25:00,
2013-03-28 19:30:00,36.7,29.2,29.97,NNW,342,0.0,0.0,74,0.00,,,0.00,Wunderground v.1.15,2013-03-28 23:30:00,
2013-03-28 19:35:00,35.9,29.1,29.97,NNW,342,0.0,0.0,76,0.00,,,0.00,Wunderground v.1.15,2013-03-28 23:35:00,
2013-03-28 19:40:00,35.1,28.6,29.97,NNW,342,0.0,0.0,77,0.00,,,0.00,Wunderground v.1.15,2013-03-28 23:40:00,
2013-03-28 19:45:00,34.2,28.4,29.98,NNW,341,0.0,0.0,79,0.00,,,0.00,Wunderground v.1.15,2013-03-28 23:45:00,
2013-03-28 19:50:00,33.3,28.4,29.98,NNW,342,0.0,0.0,82,0.00,,,0.00,Wunderground v.1.15,2013-03-28 23:50:00,
2013-03-28 19:55:00,32.5,27.9,29.98,NNW,342,0.0,0.0,83,0.00,,,0.00,Wunderground v.1.15,2013-03-28 23:55:00,
2013-03-28 20:00:00,32.3,28.0,29.98,NNW,342,0.0,0.0,84,0.00,,,0.00,Wunderground v.1.15,2013-03-29 00:00:00,
2013-03-28 20:05:00,32.3,28.0,29.98,NNW,342,0.0,1.0,84,0.00,,,0.00,Wunderground v.1.15,2013-03-29 00:05:00,
2013-03-28 20:10:00,32.3,28.0,29.99,NNW,342,0.0,0.0,84,0.00,,,0.00,Wunderground v.1.15,2013-03-29 00:10:00,
2013-03-28 20:15:00,32.0,27.7,29.99,NNW,342,0.0,0.0,84,0.00,,,0.00,Wunderground v.1.15,2013-03-29 00:15:00,
2013-03-28 20:20:00,31.6,27.3,29.99,NNW,342,0.0,0.0,84,0.00,,,0.00,Wunderground v.1.15,2013-03-29 00:20:00,
2013-03-28 20:25:00,31.3,27.3,29.99,NNW,342,0.0,0.0,85,0.00,,,0.00,Wunderground v.1.15,2013-03-29 00:25:00,
2013-03-28 20:30:00,30.9,27.2,29.99,NNW,342,0.0,0.0,86,0.00,,,0.00,Wunderground v.1.15,2013-03-29 00:30:00,
2013-03-28 20:35:00,30.1,26.7,29.99,NNW,342,0.0,0.0,87,0.00,,,0.00,Wunderground v.1.15,2013-03-29 00:35:00,
2013-03-28 20:40:00,29.7,26.6,29.99,NNW,342,0.0,0.0,88,0.00,,,0.00,Wunderground v.1.15,2013-03-29 00:40:00,
2013-03-28 20:45:00,29.1,26.0,29.99,East,85,1.0,1.0,88,0.00,,,0.00,Wunderground v.1.15,2013-03-29 00:45:00,
2013-03-28 20:50:00,28.7,25.9,30.00,East,85,0.0,0.0,89,0.00,,,0.00,Wunderground v.1.15,2013-03-29 00:50:00,
2013-03-28 20:55:00,28.4,25.6,30.00,East,85,0.0,0.0,89,0.00,,,0.00,Wunderground v.1.15,2013-03-29 00:55:00,
2013-03-28 21:00:00,28.2,25.6,30.00,East,85,0.0,0.0,90,0.00,,,0.00,Wunderground v.1.15,2013-03-29 01:00:00,
2013-03-28 21:05:00,28.0,25.4,30.00,East,85,0.0,0.0,90,0.00,,,0.00,Wunderground v.1.15,2013-03-29 01:05:00,
2013-03-28 21:10:00,27.8,25.2,30.00,East,85,0.0,0.0,90,0.00,,,0.00,Wunderground v.1.15,2013-03-29 01:10:00,
2013-03-28 21:15:00,27.9,25.6,30.00,East,96,0.0,0.0,91,0.00,,,0.00,Wunderground v.1.15,2013-03-29 01:15:00,
2013-03-28 21:21:00,27.9,25.6,30.01,East,96,0.0,0.0,91,0.00,,,0.00,Wunderground v.1.15,2013-03-29 01:21:00,
2013-03-28 21:26:00,28.1,26.1,30.01,East,94,0.0,0.0,92,0.00,,,0.00,Wunderground v.1.15,2013-03-29 01:26:00,
2013-03-28 21:31:00,28.3,26.0,30.01,East,96,0.0,0.0,91,0.00,,,0.00,Wunderground v.1.15,2013-03-29 01:31:00,
2013-03-28 21:37:00,28.3,26.3,30.01,East,96,0.0,0.0,92,0.00,,,0.00,Wunderground v.1.15,2013-03-29 01:37:00,
2013-03-28 21:42:00,28.4,26.4,30.01,East,96,0.0,0.0,92,0.00,,,0.00,Wunderground v.1.15,2013-03-29 01:42:00,
2013-03-28 21:47:00,28.4,26.4,30.01,East,96,0.0,0.0,92,0.00,,,0.00,Wunderground v.1.15,2013-03-29 01:47:00,
2013-03-28 21:52:00,28.3,26.3,30.01,East,96,0.0,0.0,92,0.00,,,0.00,Wunderground v.1.15,2013-03-29 01:52:00,
2013-03-28 21:57:00,28.3,26.3,30.01,East,96,0.0,0.0,92,0.00,,,0.00,Wunderground v.1.15,2013-03-29 01:57:00,
2013-03-28 22:02:00,28.2,26.2,30.01,ESE,115,0.0,0.0,92,0.00,,,0.00,Wunderground v.1.15,2013-03-29 02:02:00,
2013-03-28 22:07:00,28.2,26.2,30.01,East,90,0.0,2.0,92,0.00,,,0.00,Wunderground v.1.15,2013-03-29 02:07:00,
2013-03-28 22:12:00,28.5,26.5,30.01,East,90,0.0,0.0,92,0.00,,,0.00,Wunderground v.1.15,2013-03-29 02:12:00,
2013-03-28 22:17:00,28.4,26.4,30.01,East,91,0.0,0.0,92,0.00,,,0.00,Wunderground v.1.15,2013-03-29 02:17:00,
2013-03-28 22:22:00,28.5,26.5,30.01,East,90,0.0,0.0,92,0.00,,,0.00,Wunderground v.1.15,2013-03-29 02:22:00,
2013-03-28 22:27:00,28.6,26.6,30.01,East,91,0.0,0.0,92,0.00,,,0.00,Wunderground v.1.15,2013-03-29 02:27:00,
2013-03-28 22:33:00,28.6,26.6,30.01,East,90,0.0,0.0,92,0.00,,,0.00,Wunderground v.1.15,2013-03-29 02:33:00,
2013-03-28 22:38:00,28.7,26.7,30.00,East,90,0.0,1.0,92,0.00,,,0.00,Wunderground v.1.15,2013-03-29 02:38:00,
2013-03-28 22:43:00,29.0,27.2,30.00,East,90,0.0,0.0,93,0.00,,,0.00,Wunderground v.1.15,2013-03-29 02:43:00,
2013-03-28 22:48:00,29.3,27.5,30.00,East,91,0.0,0.0,93,0.00,,,0.00,Wunderground v.1.15,2013-03-29 02:48:00,
2013-03-28 22:53:00,29.5,27.7,30.01,East,91,0.0,0.0,93,0.00,,,0.00,Wunderground v.1.15,2013-03-29 02:53:00,
2013-03-28 22:58:00,29.8,28.0,30.01,East,91,0.0,0.0,93,0.00,,,0.00,Wunderground v.1.15,2013-03-29 02:58:00,
2013-03-28 23:03:00,30.2,28.4,30.01,East,90,0.0,0.0,93,0.00,,,0.00,Wunderground v.1.15,2013-03-29 03:03:00,
2013-03-28 23:08:00,30.4,28.4,30.01,East,91,0.0,0.0,92,0.00,,,0.00,Wunderground v.1.15,2013-03-29 03:08:00,
2013-03-28 23:13:00,30.4,28.4,30.00,East,90,0.0,0.0,92,0.00,,,0.00,Wunderground v.1.15,2013-03-29 03:13:00,
2013-03-28 23:18:00,30.6,28.6,30.01,ENE,69,0.0,0.0,92,0.00,,,0.00,Wunderground v.1.15,2013-03-29 03:18:00,
2013-03-28 23:23:00,30.8,28.8,30.01,ESE,119,0.0,0.0,92,0.00,,,0.00,Wunderground v.1.15,2013-03-29 03:23:00,
2013-03-28 23:28:00,30.9,28.9,30.01,North,10,0.0,3.0,92,0.00,,,0.00,Wunderground v.1.15,2013-03-29 03:28:00,
2013-03-28 23:33:00,31.4,29.3,30.01,NW,321,0.0,2.0,92,0.00,,,0.00,Wunderground v.1.15,2013-03-29 03:33:00,
2013-03-28 23:38:00,32.6,30.5,30.01,WNW,299,0.0,4.0,92,0.00,,,0.00,Wunderground v.1.15,2013-03-29 03:38:00,
2013-03-28 23:43:00,33.3,30.7,30.01,WSW,257,0.0,1.0,90,0.00,,,0.00,Wunderground v.1.15,2013-03-29 03:43:00,
2013-03-28 23:48:00,33.8,30.9,30.01,NW,312,0.0,3.0,89,0.00,,,0.00,Wunderground v.1.15,2013-03-29 03:48:00,
2013-03-28 23:54:00,34.5,31.0,30.01,NW,312,0.0,4.0,87,0.00,,,0.00,Wunderground v.1.15,2013-03-29 03:54:00,
2013-03-28 23:59:00,34.7,30.9,30.01,NW,304,0.0,1.0,86,0.00,,,0.00,Wunderground v.1.15,2013-03-29 03:59:00,